EW3359 Weather Reports


Display with metric or nautical units.
time (UTC)temp
F
wind
direction
speed
MPH
gust
MPH
rain 1hr
in
rain 24hr
in
rain mn
in
humidity
%
barometer
mb
20260509161541 75 300 0.0 8.0 0.00 0.00 0.00 31 1007.6
20260509160036 75 64 0.0 6.0 0.00 0.00 0.00 31 1007.6
20260509154538 75 205 0.0 4.0 0.00 0.00 0.00 32 1007.6
20260509153050 76 115 3.0 9.0 0.00 0.00 0.00 30 1007.6
20260509151530 78 126 4.0 16.0 0.00 0.00 0.00 29 1007.5
20260509150032 77 172 2.0 12.0 0.00 0.00 0.00 29 1007.6
20260509144529 77 127 4.0 16.0 0.00 0.00 0.00 29 1007.6
20260509143029 77 138 2.0 12.0 0.00 0.00 0.00 28 1007.7
20260509141535 78 101 2.0 12.0 0.00 0.00 0.00 28 1007.9
20260509140026 77 107 3.0 12.0 0.00 0.00 0.00 30 1007.9
20260509134524 77 129 3.0 11.0 0.00 0.00 0.00 29 1008.1
20260509133025 77 88 3.0 10.0 0.00 0.00 0.00 32 1008.2
20260509131523 78 128 0.0 10.0 0.00 0.00 0.00 31 1008.6
20260509130021 77 127 0.0 9.0 0.00 0.00 0.00 30 1008.8
20260509124518 77 11 1.0 5.0 0.00 0.00 0.00 29 1008.8
20260509123015 76 280 1.0 7.0 0.00 0.00 0.00 31 1009.1
20260509121513 76 151 1.0 5.0 0.00 0.00 0.00 33 1009.3
20260509120012 76 277 0.0 6.0 0.00 0.00 0.00 34 1009.4
20260509114508 75 209 1.0 4.0 0.00 0.00 0.00 36 1009.9
20260509113005 75 149 2.0 10.0 0.00 0.00 0.00 38 1010.1
20260509111501 74 176 0.0 5.0 0.00 0.00 0.00 39 1010.4
20260509110059 73 156 0.0 5.0 0.00 0.00 0.00 38 1010.6
20260509104600 72 191 1.0 8.0 0.00 0.00 0.00 42 1011.1
20260509103103 72 172 1.0 6.0 0.00 0.00 0.00 42 1011.2
20260509101548 71 169 2.0 6.0 0.00 0.00 0.00 46 1011.6
20260509100045 70 147 1.0 5.0 0.00 0.00 0.00 50 1011.8
20260509094552 69 236 1.0 3.0 0.00 0.00 0.00 52 1012.0
20260509093039 68 171 0.0 6.0 0.00 0.00 0.00 52 1012.1
20260509091540 68 187 1.0 5.0 0.00 0.00 0.00 55 1012.4
20260509090037 68 134 1.0 4.0 0.00 0.00 0.00 55 1012.6
20260509084525 65 166 0.0 3.0 0.00 0.00 0.00 58 1012.8
20260509083019 65 161 0.0 5.0 0.00 0.00 0.00 56 1013.0
20260509081515 65 105 0.0 3.0 0.00 0.00 0.00 61 1013.1
20260509080010 64 288 0.0 1.0 0.00 0.00 0.00 62 1013.5
20260509074506 63 131 0.0 2.0 0.00 0.00 0.00 65 1013.9
20260509073005 61 165 0.0 3.0 0.00 0.00 0.00 67 1014.0
20260509071602 61 128 0.0 3.0 0.00 0.00 0.00 69 1014.2
20260509070056 60 193 1.0 3.0 0.00 0.00 0.00 75 1014.1
20260509064549 59 193 0.0 1.0 0.00 0.00 0.00 76 1014.3
20260509063056 57 193 0.0 1.0 0.00 0.00 0.00 80 1014.5
20260509061642 56 193 0.0 1.0 0.00 0.00 0.00 84 1014.6
20260509060004 56 193 0.0 1.0 0.00 0.00 0.00 84 1014.7
20260509054600 55 196 0.0 0.0 0.00 0.00 0.00 84 1014.6
20260509053117 55 196 0.0 0.0 0.00 0.00 0.00 84 1014.6
20260509051609 54 196 0.0 0.0 0.00 0.00 0.00 86 1014.6
20260509050054 54 196 0.0 0.0 0.00 0.00 0.00 86 1014.6
20260509044551 54 196 0.0 0.0 0.00 0.00 0.00 84 1014.4
20260509043054 54 196 0.0 0.0 0.00 0.00 0.00 82 1014.1
20260509041549 54 196 0.0 0.0 0.00 0.00 0.00 83 1014.1
20260509040104 54 196 0.0 0.0 0.00 0.00 0.00 85 1014.1
20260509034547 54 196 0.0 0.0 0.00 0.00 0.00 85 1014.1
20260509033108 55 196 0.0 0.0 0.00 0.00 0.00 83 1014.1
20260509031548 55 196 0.0 0.0 0.00 0.00 0.00 83 1014.1
20260509030045 55 196 0.0 0.0 0.00 0.00 0.00 83 1014.2
20260509024555 55 196 0.0 0.0 0.00 0.00 0.00 84 1014.3
20260509023044 55 196 0.0 0.0 0.00 0.00 0.00 83 1014.2
20260509021544 55 196 0.0 0.0 0.00 0.00 0.00 84 1014.1
20260509020043 55 196 0.0 0.0 0.00 0.00 0.00 84 1014.1
20260509014541 55 196 0.0 0.0 0.00 0.00 0.00 83 1014.2
20260509013041 55 196 0.0 0.0 0.00 0.00 0.00 85 1014.4
20260509011544 55 196 0.0 0.0 0.00 0.00 0.00 84 1014.5
20260509010040 56 196 0.0 0.0 0.00 0.00 0.00 81 1014.6
20260509004536 56 196 0.0 0.0 0.00 0.00 0.00 82 1014.7
20260509003037 56 196 0.0 0.0 0.00 0.00 0.00 83 1014.6
20260509001537 56 196 0.0 0.0 0.00 0.00 0.00 81 1014.5
20260509000035 56 196 0.0 0.0 0.00 0.00 0.00 81 1014.5
20260508234534 56 196 0.0 0.0 0.00 0.00 0.00 82 1014.5
20260508233037 56 196 0.0 0.0 0.00 0.00 0.00 85 1014.4
20260508231532 56 196 0.0 0.0 0.00 0.00 0.00 84 1014.4
20260508230029 57 196 0.0 0.0 0.00 0.00 0.00 81 1014.4
20260508224526 57 196 0.0 0.0 0.00 0.00 0.00 78 1014.6
20260508223027 57 196 0.0 0.0 0.00 0.00 0.00 78 1014.6
20260508221525 57 196 0.0 3.0 0.00 0.00 0.00 76 1014.5
20260508220021 58 320 0.0 7.0 0.00 0.00 0.00 73 1014.5
20260508214525 59 214 0.0 11.0 0.00 0.00 0.00 72 1014.5
20260508213019 60 200 0.0 3.0 0.00 0.00 0.00 66 1014.5
20260508211519 61 190 0.0 4.0 0.00 0.00 0.00 63 1014.2
20260508210024 61 181 0.0 2.0 0.00 0.00 0.00 59 1014.0
20260508204515 62 205 0.0 2.0 0.00 0.00 0.00 55 1013.8
20260508203013 63 214 0.0 5.0 0.00 0.00 0.00 54 1013.6
20260508201513 62 202 0.0 4.0 0.00 0.00 0.00 60 1013.4
20260508200014 62 32 0.0 1.0 0.00 0.00 0.00 60 1013.2
20260508194511 62 30 0.0 0.0 0.00 0.00 0.00 59 1012.6
20260508193013 62 30 0.0 0.0 0.00 0.00 0.00 57 1012.4
20260508191510 62 30 0.0 1.0 0.00 0.00 0.00 57 1012.1
20260508190011 62 338 0.0 5.0 0.00 0.00 0.00 56 1011.8
20260508184512 62 146 0.0 2.0 0.00 0.00 0.00 62 1011.7
20260508183010 63 189 0.0 6.0 0.00 0.00 0.00 59 1011.4
20260508181509 64 34 2.0 6.0 0.00 0.00 0.00 56 1010.8
20260508180009 65 119 0.0 3.0 0.00 0.00 0.00 51 1010.3
20260508174509 66 170 0.0 4.0 0.00 0.00 0.00 57 1009.8
20260508173009 67 155 0.0 2.0 0.00 0.00 0.00 49 1009.6
20260508171507 68 263 1.0 10.0 0.00 0.00 0.00 48 1009.2
20260508170007 69 170 1.0 8.0 0.00 0.00 0.00 45 1008.9
20260508164507 70 244 1.0 8.0 0.00 0.00 0.00 42 1008.7
20260508163012 71 256 2.0 8.0 0.00 0.00 0.00 41 1008.2